This is the latest recevied weather packets stored in our database for station/object NR5ON-13. If no packets are shown the sender has not sent any weather packets the latest 10 day(s).
| Time | Temp. | Humidity | Pressure | Rain* | Wind** | Luminosity | Snow |
|---|---|---|---|---|---|---|---|
| 1777754305 | 15° C | 30% | 1024 hPa | 0 mm | - | - | - |
| 1777754011 | 15.56° C | 28% | 1024.1 hPa | 0 mm | - | - | - |
| 1777753696 | 15.56° C | 31% | 1024.1 hPa | 0 mm | - | - | - |
| 1777753405 | 15.56° C | 31% | 1024.1 hPa | 0 mm | - | - | - |
| 1777753110 | 15.56° C | 30% | 1024.3 hPa | 0 mm | - | - | - |
| 1777752798 | 15.56° C | 31% | 1024.1 hPa | 0 mm | - | - | - |
| 1777752502 | 15° C | 31% | 1024.3 hPa | 0 mm | - | - | - |
| 1777752211 | 15.56° C | 30% | 1024.3 hPa | 0 mm | - | - | - |
| 1777751900 | 15.56° C | 30% | 1024.5 hPa | 0 mm | - | - | - |
| 1777751604 | 15.56° C | 33% | 1024.5 hPa | 0 mm | - | - | - |
| 1777751310 | 15° C | 30% | 1024.5 hPa | 0 mm | - | - | - |
| 1777751015 | 15.56° C | 31% | 1024.7 hPa | 0 mm | - | - | - |
| 1777750700 | 15° C | 33% | 1024.6 hPa | 0 mm | - | - | - |
| 1777750405 | 15° C | 34% | 1024.7 hPa | 0 mm | - | - | - |
| 1777750112 | 14.44° C | 35% | 1024.7 hPa | 0 mm | - | - | - |
| 1777749797 | 13.89° C | 34% | 1024.8 hPa | 0 mm | - | - | - |
| 1777749503 | 14.44° C | 37% | 1024.9 hPa | 0 mm | - | - | - |
| 1777749210 | 14.44° C | 37% | 1025 hPa | 0 mm | - | - | - |
| 1777748899 | 14.44° C | 35% | 1025 hPa | 0 mm | - | - | - |
| 1777748017 | 13.89° C | 39% | 1025.1 hPa | 0 mm | - | - | - |
| 1777747703 | 13.89° C | 38% | 1025.2 hPa | 0 mm | - | - | - |
| 1777747409 | 13.89° C | 39% | 1025.3 hPa | 0 mm | - | - | - |
| 1777747114 | 13.89° C | 40% | 1025.4 hPa | 0 mm | - | - | - |
| 1777746799 | 13.33° C | 39% | 1025.4 hPa | 0 mm | - | - | - |
| 1777746505 | 13.33° C | 40% | 1025.5 hPa | 0 mm | - | - | - |
* Rain latest hour (hover to see other rain measurements)
** Current wind speed in m/s (hover to see current wind gust speed)